• en France
  • Liste des pays
  • À 7 jours
  • Température de l'eau
  • Carte satellitaire
  • Carte météo
  • Widgets météo
  • user-avatar
    Se connecter

    Météo par heure à Dinajpur

    Ce jour, 16 Juillet, Lundi

    Heure Température Précipitation Vent Pression Humidité
    00:00 +32°C° 0 mm 2 m/s 747 mmHg 71%
    01:00 +33°C° 0 mm 3 m/s 746 mmHg 73%
    02:00 +31°C° 0 mm 3 m/s 746 mmHg 74%
    03:00 +31°C° 0 mm 3 m/s 746 mmHg 75%
    04:00 +32°C° 0 mm 4 m/s 746 mmHg 77%
    05:00 +32°C° 0 mm 4 m/s 746 mmHg 79%
    06:00 +30°C° 0 mm 4 m/s 746 mmHg 83%
    07:00 +32°C° 0 mm 5 m/s 746 mmHg 79%
    08:00 +33°C° 0 mm 6 m/s 746 mmHg 74%
    09:00 +34°C° 0 mm 7 m/s 746 mmHg 70%
    10:00 +35°C° 0 mm 7 m/s 746 mmHg 67%
    11:00 +35°C° 0 mm 6 m/s 746 mmHg 64%
    12:00 +36°C° 0 mm 7 m/s 746 mmHg 60%
    13:00 +38°C° 0 mm 7 m/s 746 mmHg 58%
    14:00 +38°C° 0 mm 7 m/s 745 mmHg 56%
    15:00 +39°C° 0 mm 7 m/s 745 mmHg 53%
    16:00 +39°C° 0 mm 6 m/s 744 mmHg 55%
    17:00 +37°C° 0 mm 5 m/s 744 mmHg 57%
    18:00 +36°C° 0 mm 5 m/s 744 mmHg 60%
    19:00 +35°C° 0 mm 5 m/s 745 mmHg 62%
    20:00 +34°C° 0 mm 5 m/s 745 mmHg 64%
    21:00 +34°C° 0 mm 4 m/s 746 mmHg 66%
    22:00 +33°C° 0 mm 5 m/s 746 mmHg 68%
    23:00 +33°C° 0 mm 5 m/s 746 mmHg 71%

    Demain, 17 Juillet, Mardi

    Heure Température Précipitation Vent Pression Humidité
    00:00 +32°C° 0 mm 5 m/s 747 mmHg 73%
    01:00 +32°C° 0 mm 5 m/s 746 mmHg 75%
    02:00 +32°C° 0 mm 5 m/s 746 mmHg 77%
    03:00 +30°C° 0 mm 6 m/s 746 mmHg 79%
    04:00 +30°C° 0 mm 5 m/s 746 mmHg 80%
    05:00 +30°C° 0 mm 5 m/s 746 mmHg 81%
    06:00 +30°C° 0 mm 5 m/s 746 mmHg 82%
    07:00 +32°C° 0 mm 6 m/s 746 mmHg 79%
    08:00 +32°C° 0 mm 6 m/s 747 mmHg 76%
    09:00 +33°C° 0 mm 7 m/s 747 mmHg 73%
    10:00 +34°C° 0,2 mm 7 m/s 747 mmHg 69%
    11:00 +35°C° 0,2 mm 7 m/s 746 mmHg 64%
    12:00 +36°C° 0,2 mm 7 m/s 746 mmHg 60%
    13:00 +38°C° 0,4 mm 7 m/s 746 mmHg 58%
    14:00 +38°C° 0,4 mm 6 m/s 745 mmHg 56%
    15:00 +39°C° 0,4 mm 6 m/s 745 mmHg 55%
    16:00 +38°C° 1,3 mm 6 m/s 744 mmHg 57%
    17:00 +38°C° 1,3 mm 6 m/s 744 mmHg 60%
    18:00 +36°C° 1,3 mm 5 m/s 744 mmHg 63%
    19:00 +35°C° 0,7 mm 5 m/s 745 mmHg 66%
    20:00 +34°C° 0,7 mm 5 m/s 745 mmHg 70%
    21:00 +34°C° 0,7 mm 4 m/s 746 mmHg 73%
    22:00 +33°C° 1,2 mm 4 m/s 746 mmHg 75%
    23:00 +33°C° 1,2 mm 4 m/s 747 mmHg 77%

    Après-demain, 18 Juillet, Mercredi

    Heure Température Précipitation Vent Pression Humidité
    00:00 +32°C° 1,2 mm 4 m/s 747 mmHg 79%
    01:00 +32°C° 1,9 mm 4 m/s 747 mmHg 81%
    02:00 +32°C° 1,9 mm 4 m/s 746 mmHg 82%
    03:00 +30°C° 1,9 mm 4 m/s 746 mmHg 84%
    04:00 +30°C° 0,3 mm 4 m/s 746 mmHg 85%
    05:00 +30°C° 0,3 mm 3 m/s 746 mmHg 85%
    06:00 +30°C° 0,3 mm 3 m/s 747 mmHg 86%
    07:00 +32°C° 0 mm 4 m/s 747 mmHg 82%
    08:00 +33°C° 0 mm 4 m/s 747 mmHg 77%
    09:00 +34°C° 0 mm 4 m/s 747 mmHg 72%
    10:00 +35°C° 0 mm 4 m/s 747 mmHg 67%
    11:00 +36°C° 0 mm 5 m/s 747 mmHg 62%
    12:00 +37°C° 0 mm 5 m/s 747 mmHg 56%
    13:00 +39°C° 0,2 mm 5 m/s 746 mmHg 55%
    14:00 +38°C° 0,2 mm 4 m/s 745 mmHg 54%
    15:00 +38°C° 0,2 mm 4 m/s 745 mmHg 53%
    16:00 +38°C° 0 mm 4 m/s 744 mmHg 54%
    17:00 +38°C° 0 mm 3 m/s 744 mmHg 56%
    18:00 +37°C° 0 mm 3 m/s 744 mmHg 57%
    19:00 +37°C° 0 mm 3 m/s 744 mmHg 60%
    20:00 +36°C° 0 mm 3 m/s 745 mmHg 63%
    21:00 +35°C° 0 mm 3 m/s 746 mmHg 65%
    22:00 +35°C° 1,2 mm 2 m/s 746 mmHg 68%
    23:00 +34°C° 1,2 mm 2 m/s 746 mmHg 71%

    19 Juillet, Jeudi

    Heure Température Précipitation Vent Pression Humidité
    00:00 +34°C° 1,2 mm 2 m/s 746 mmHg 74%
    01:00 +32°C° 2,2 mm 2 m/s 746 mmHg 76%
    02:00 +32°C° 2,2 mm 2 m/s 746 mmHg 78%
    03:00 +31°C° 2,2 mm 2 m/s 745 mmHg 79%
    04:00 +31°C° 0,2 mm 2 m/s 745 mmHg 80%
    05:00 +31°C° 0,2 mm 2 m/s 745 mmHg 81%
    06:00 +31°C° 0,2 mm 2 m/s 746 mmHg 82%
    07:00 +32°C° 0 mm 2 m/s 746 mmHg 77%
    08:00 +34°C° 0 mm 2 m/s 746 mmHg 72%
    09:00 +35°C° 0 mm 3 m/s 746 mmHg 68%
    10:00 +36°C° 0 mm 3 m/s 746 mmHg 63%
    11:00 +37°C° 0 mm 3 m/s 746 mmHg 59%
    12:00 +38°C° 0 mm 3 m/s 746 mmHg 55%
    13:00 +38°C° 0 mm 3 m/s 745 mmHg 53%
    14:00 +38°C° 0 mm 3 m/s 744 mmHg 51%
    15:00 +39°C° 0 mm 2 m/s 744 mmHg 49%
    16:00 +38°C° 0 mm 2 m/s 743 mmHg 51%
    17:00 +38°C° 0 mm 2 m/s 743 mmHg 53%
    18:00 +38°C° 0 mm 2 m/s 743 mmHg 54%
    19:00 +37°C° 0 mm 2 m/s 744 mmHg 57%
    20:00 +36°C° 0 mm 2 m/s 744 mmHg 60%
    21:00 +36°C° 0 mm 2 m/s 745 mmHg 63%
    22:00 +35°C° 0 mm 2 m/s 745 mmHg 65%
    23:00 +35°C° 0 mm 2 m/s 745 mmHg 67%

    20 Juillet, Vendredi

    Heure Température Précipitation Vent Pression Humidité
    00:00 +34°C° 0 mm 2 m/s 745 mmHg 69%
    01:00 +34°C° 0,3 mm 2 m/s 745 mmHg 70%
    02:00 +33°C° 0,3 mm 1 m/s 744 mmHg 72%
    03:00 +32°C° 0,3 mm 1 m/s 744 mmHg 73%
    04:00 +32°C° 0 mm 1 m/s 744 mmHg 75%
    05:00 +32°C° 0 mm 1 m/s 744 mmHg 76%
    06:00 +32°C° 0 mm 1 m/s 744 mmHg 77%
    07:00 +34°C° 0 mm 2 m/s 744 mmHg 73%
    08:00 +35°C° 0 mm 2 m/s 745 mmHg 69%
    09:00 +35°C° 0 mm 2 m/s 745 mmHg 65%
    10:00 +36°C° 0,1 mm 2 m/s 745 mmHg 61%
    11:00 +37°C° 0,1 mm 3 m/s 745 mmHg 57%
    12:00 +39°C° 0,1 mm 3 m/s 744 mmHg 53%
    13:00 +39°C° 0 mm 3 m/s 744 mmHg 52%
    14:00 +39°C° 0 mm 3 m/s 743 mmHg 50%
    15:00 +39°C° 0 mm 3 m/s 743 mmHg 49%
    16:00 +39°C° 0 mm 2 m/s 742 mmHg 49%
    17:00 +39°C° 0 mm 2 m/s 742 mmHg 50%
    18:00 +39°C° 0 mm 2 m/s 742 mmHg 50%
    19:00 +38°C° 0 mm 2 m/s 743 mmHg 53%
    20:00 +37°C° 0 mm 2 m/s 744 mmHg 56%
    21:00 +37°C° 0 mm 2 m/s 744 mmHg 59%
    22:00 +36°C° 0 mm 2 m/s 744 mmHg 61%
    23:00 +35°C° 0 mm 2 m/s 744 mmHg 64%

    21 Juillet, Samedi

    Heure Température Précipitation Vent Pression Humidité
    00:00 +35°C° 0 mm 3 m/s 744 mmHg 66%
    01:00 +35°C° 0 mm 2 m/s 744 mmHg 68%
    02:00 +34°C° 0 mm 2 m/s 743 mmHg 71%
    03:00 +34°C° 0 mm 2 m/s 743 mmHg 73%
    04:00 +32°C° 0,4 mm 2 m/s 743 mmHg 74%
    05:00 +32°C° 0,4 mm 2 m/s 743 mmHg 76%
    06:00 +32°C° 0,4 mm 2 m/s 743 mmHg 77%
    07:00 +34°C° 0 mm 2 m/s 744 mmHg 73%
    08:00 +35°C° 0 mm 2 m/s 744 mmHg 69%
    09:00 +35°C° 0 mm 2 m/s 745 mmHg 66%
    10:00 +37°C° 0 mm 2 m/s 744 mmHg 61%
    11:00 +38°C° 0 mm 2 m/s 744 mmHg 56%
    12:00 +39°C° 0 mm 2 m/s 744 mmHg 51%
    13:00 +39°C° 0 mm 2 m/s 743 mmHg 49%
    14:00 +40°C° 0 mm 2 m/s 743 mmHg 46%
    15:00 +40°C° 0 mm 1 m/s 742 mmHg 44%
    16:00 +40°C° 0 mm 1 m/s 742 mmHg 45%
    17:00 +40°C° 0 mm 1 m/s 742 mmHg 47%
    18:00 +40°C° 0 mm 1 m/s 742 mmHg 49%
    19:00 +39°C° 0 mm 1 m/s 742 mmHg 51%
    20:00 +37°C° 0 mm 1 m/s 743 mmHg 53%
    21:00 +37°C° 0 mm 1 m/s 743 mmHg 55%
    22:00 +36°C° 0 mm 1 m/s 743 mmHg 57%
    23:00 +36°C° 0 mm 1 m/s 743 mmHg 59%
    Voir plus